Location: Godiavel Galaoual
(15.2485°N, 12.6604°W)
Time: 05:11:49
(UTC+00:00)

Explorer 7 - Pass Details

Date: 20 June 2021
Orbit: 484 x 676 km, 50.3° (Epoch: 03 August)

Event Time Altitude Azimuth Distance (km) Brightness Sun altitude
Rises 04:59:29 0° 335° (NNW) 2,799 10.5 -18.3°
Reaches altitude 10° 05:02:04 10° 347° (NNW) 1,862 9.7 -17.7°
Maximum altitude 05:05:44 28° 47° (NE) 1,029 9.0 -17.0°
Drops below altitude 10° 05:09:13 10° 108° (ESE) 1,760 10.0 -16.3°
Sets 05:11:35 0° 120° (ESE) 2,617 10.7 -15.8°
